Lid_Strength_Index
2 1 1 2 2 2 2 2 3 3 4 4 4 4 4 3 4 5 7 6 6 0 2 5 5 6 7 8 7 9 13 12 11 10 9 6 6 5 4 5 5 4 4 3 2
2 2 2 2 2 2 2 2 2 2 3 4 4 5 4 4 5 7 3 -1 -1 -1 6 6 6 6 9 8 9 10 12 11 8 7 9 6 6 6 6 6 6 5 3 2 2
2 2 1 1 1 2 2 2 2 2 3 3 5 5 5 5 6 6 -1 -1 -1 0 7 6 6 7 9 9 9 10 10 8 7 6 5 6 6 5 6 8 6 6 5 3 3
2 2 1 1 2 2 2 2 2 2 2 3 4 4 5 5 10 7 -1 -0 -0 5 7 6 6 11 12 11 9 11 8 7 8 7 7 6 5 6 6 6 4 4 4 3 4
2 2 1 1 1 2 2 2 2 2 2 3 3 3 5 7 7 2 -2 -1 6 7 8 7 7 10 12 10 8 9 8 7 6 7 7 5 6 6 6 4 3 3 3 4 4
2 1 1 1 2 2 2 2 2 2 2 3 2 3 5 9 5 3 4 6 7 8 9 8 6 6 9 10 9 7 8 7 7 8 8 8 6 6 5 4 4 4 4 4 3
1 1 1 1 2 2 2 2 3 2 2 3 2 3 6 7 4 4 5 5 6 7 8 7 5 7 8 9 7 7 9 8 7 8 7 7 8 7 5 4 5 5 4 4 3
1 1 2 2 1 2 2 2 3 2 2 2 2 4 6 3 4 5 6 6 5 6 7 6 6 7 7 7 7 8 8 11 9 8 7 8 12 6 5 5 6 5 4 4 4
1 2 2 2 2 2 2 3 2 2 2 0 3 5 6 3 5 4 5 6 6 6 7 5 6 7 7 9 11 10 13 12 10 7 8 9 9 6 5 5 6 5 5 4 4
1 2 2 2 2 2 3 3 1 1 2 1 1 5 4 5 5 4 4 5 8 8 9 9 9 10 10 11 14 12 12 11 11 8 8 9 8 6 5 5 6 6 5 5 5
1 2 2 2 2 2 3 4 6 5 5 8 7 5 4 3 3 4 4 6 8 10 12 10 12 13 10 9 9 9 10 11 9 8 9 10 8 7 6 6 7 6 6 5 5
1 1 2 2 2 2 3 5 6 7 9 6 5 5 4 4 4 4 5 9 10 13 11 12 13 8 7 7 8 9 11 11 9 8 9 9 9 7 7 7 6 6 6 5 5
2 2 2 2 2 2 3 3 4 5 9 6 4 5 5 5 6 5 7 9 11 12 12 13 9 6 7 8 9 10 11 10 10 8 8 9 10 8 6 6 6 5 5 5 5
2 2 2 3 3 3 3 2 4 5 10 7 6 4 4 5 7 5 6 8 10 11 11 11 6 7 8 9 9 12 8 8 9 10 13 9 15 10 8 7 6 6 6 5 5
2 2 2 3 3 4 2 1 3 5 17 6 6 4 5 6 6 6 5 7 10 9 9 10 8 8 9 8 7 10 7 9 8 10 11 10 13 12 8 9 8 7 6 5 5
2 2 2 2 3 2 1 1 5 10 16 8 6 7 7 6 7 6 6 6 7 8 8 8 6 7 7 7 7 7 8 9 10 12 14 11 12 13 10 9 8 6 6 5 5
2 3 3 2 4 1 1 4 11 14 7 8 8 7 8 8 7 7 7 9 11 13 12 9 9 7 6 8 7 9 12 15 15 16 15 11 12 11 8 7 6 6 6 5 5
3 4 3 2 1 1 3 9 14 9 9 6 6 7 8 8 8 8 8 10 8 9 11 12 12 8 6 8 9 10 11 13 16 16 14 10 12 11 7 6 6 5 6 5 5
4 3 2 2 1 1 6 13 11 9 7 8 7 10 9 7 8 8 9 9 9 8 11 12 11 6 6 6 7 10 12 9 12 13 14 13 11 8 7 7 7 7 6 6 6
5 4 3 1 1 2 8 11 9 7 7 8 10 9 10 9 9 9 8 7 8 8 7 9 13 8 6 6 7 9 8 12 12 16 17 13 13 13 10 9 8 7 7 7 5
5 6 2 0 2 5 11 10 8 6 6 7 8 9 9 9 9 9 9 7 7 8 7 8 11 10 8 9 10 10 11 10 11 12 15 18 17 9 9 9 8 7 6 6 5
4 9 1 1 7 7 9 7 7 6 5 5 6 7 8 8 9 10 10 8 6 7 9 8 11 13 11 7 6 8 10 10 13 13 13 15 15 8 7 7 6 6 6 5 5
6 6 1 2 10 9 7 7 6 6 6 6 6 6 7 8 11 8 8 6 6 6 9 8 11 14 13 10 8 9 8 9 10 11 14 15 15 7 7 8 6 6 6 5 5
5 9 5 5 5 8 8 8 8 5 6 5 6 6 7 9 8 10 9 7 6 7 7 6 11 13 15 12 10 11 10 9 11 14 13 13 12 9 8 7 7 6 6 5 5
5 8 5 9 8 7 7 7 8 8 6 6 7 7 8 11 10 10 9 8 7 7 8 9 12 11 10 9 8 9 9 9 10 10 12 11 11 9 8 7 7 6 6 6 6
7 7 6 7 7 7 8 8 8 7 7 7 8 7 7 10 9 11 9 9 11 9 9 9 13 11 11 9 9 10 9 9 9 9 10 10 10 7 6 6 6 6 6 6 6
3 3 5 7 7 8 8 7 7 6 6 6 7 8 8 8 7 7 6 7 9 10 11 11 13 13 14 10 10 12 10 9 9 9 10 12 10 7 7 7 6 6 6 6 6